Location: *
(58.7167°N, 26.1833°E)
Time: 11:29:23
(UTC+00:00)

NOSS 7 (D) - Pass Details

Date: 25 August 2019
Orbit: 331 x 828 km, 63.3° (Epoch: 21 September)

Event Time Altitude Azimuth Distance (km) Brightness Sun altitude
Rises 20:22:48 0° 299° (WNW) 2,122 8.9 -16.9°
Maximum altitude 20:27:31 64° 26° (NNE) 404 4.2 -17.2°
Enters shadow 20:28:14 44° 88° (E) 519 4.5 -17.2°
